Home > Time Zones > World Clock > Weather > Yemen > Aden > Past weeks

Flag for Yemen Weather past 2 weeks in Aden, Yemen

Now
90 °F

Passing clouds.


Feels Like: 93 °F
Forecast: 83 / 93 °F
Wind: 10 mph from Southeast

Location: Aden

Current Time: Aug 22, 2014 at 11:23:26 AM

Latest Report: Aug 22, 2014 at 11:00 AM


Visibility: N/A

Pressure: 29.71 "Hg

Humidity: 49%

Dew point: 68 °F

Location of AdenLocation

Historic Weather in Aden — Graph

°F

Aden temperature yesterday

Maximum temperature yesterday: 93 °F (at 2:00 PM)
Minimum temperature yesterday: 86 °F (at 1:00 AM)
Average temperature yesterday: 89 °F

Past Weeks' High & Low Weather Summary

 TemperatureHumidityPressure
High99 °F (Aug 8, 4:00 PM)94% (Aug 19, 5:00 AM)29.80 "Hg (Aug 19, 5:00 AM)
Low77 °F (Aug 13, 6:00 PM)22% (Aug 17, 6:00 PM)29.50 "Hg (Aug 7, 5:00 PM)
Average90 °F50%29.63 "Hg
* Reported Aug 7 10:00 AM — Aug 22 10:00 AM, Aden, Weather by CustomWeather, © 2014

Note: Actual official high and low records may vary slightly from our data, if they occured in-between our weather recording intervals... More about our weather records

Advertising

Aden weather history for previous 24 hours

 ConditionsComfort  
Time TempWeatherWind HumidityBarometerVisibility
10:00 AM
Aug 22
90 °FScattered clouds.9 mph55%29.71 "HgN/A
9:00 AM90 °FScattered clouds.9 mph55%29.71 "HgN/A
8:00 AM88 °FPartly sunny.9 mph66%29.71 "Hg5 mi
7:00 AM86 °FScattered clouds.9 mph66%29.68 "HgN/A
6:00 AM86 °FPartly sunny.7 mph66%29.68 "HgN/A
5:00 AM86 °FPassing clouds.8 mph70%29.65 "HgN/A
4:00 AM86 °FPassing clouds.7 mph66%29.65 "HgN/A
3:00 AM86 °FClear.7 mph66%29.62 "Hg10 mi
12:00 AM88 °FClear.10 mph59%29.65 "Hg10 mi
11:00 PM
Aug 21
88 °FClear.12 mph59%29.65 "Hg10 mi
10:00 PM88 °FClear.2 mph59%29.65 "Hg10 mi
9:00 PM88 °FClear.13 mph59%29.65 "Hg10 mi
8:00 PM88 °FClear.12 mph59%29.62 "Hg10 mi
7:00 PM88 °FClear.9 mph59%29.59 "Hg10 mi
6:00 PM90 °FSunny.10 mph49%29.59 "Hg10 mi
5:00 PM90 °FSunny.13 mph46%29.59 "Hg10 mi
4:00 PM91 °FSunny.14 mph52%29.59 "Hg10 mi
3:00 PM91 °FSunny.14 mph49%29.59 "Hg10 mi
2:00 PM93 °FExtremely hot.14 mph53%29.62 "HgN/A
1:00 PM91 °FPassing clouds.14 mph52%29.65 "HgN/A
12:00 PM91 °FPassing clouds.12 mph46%29.71 "HgN/A
11:00 AM91 °FPassing clouds.10 mph46%29.74 "HgN/A
Weather by CustomWeather, © 2014

See weather overviewHow to use our weather pages